TimeEDT,TemperatureF,Dew PointF,Humidity,Sea Level PressureIn,VisibilityMPH,Wind Direction,Wind SpeedMPH,Gust SpeedMPH,PrecipitationIn,Events,Conditions,WindDirDegrees,DateUTC
12:00 AM,26.6,23.0,86,29.91,8.0,NNW,34.5,41.4,N/A,,Overcast,330,2012-10-04 04:00:00
12:13 AM,26.6,23.0,86,29.92,9.0,NNW,34.5,-,N/A,,Overcast,330,2012-10-04 04:13:00
12:28 AM,26.6,23.0,86,29.93,8.0,NNW,31.1,39.1,N/A,Snow,Light Snow,330,2012-10-04 04:28:00
12:31 AM,26.6,23.0,86,29.93,4.0,NNW,32.2,39.1,N/A,Snow,Light Snow,340,2012-10-04 04:31:00
12:32 AM,26.6,23.0,86,29.93,3.0,NNW,31.1,38.0,N/A,Snow,Light Snow,340,2012-10-04 04:32:00
12:37 AM,26.6,23.0,86,29.93,2.2,NNW,34.5,-,N/A,Snow,Light Snow,330,2012-10-04 04:37:00
12:39 AM,26.6,23.0,86,29.94,2.0,NNW,33.4,39.1,N/A,Snow,Light Snow,330,2012-10-04 04:39:00
1:00 AM,24.8,23.0,93,29.94,1.8,NNW,29.9,-,N/A,Snow,Light Snow,330,2012-10-04 05:00:00
1:09 AM,26.6,23.0,86,29.95,2.2,NNW,27.6,34.5,N/A,Snow,Light Snow,330,2012-10-04 05:09:00
1:12 AM,26.6,23.0,86,29.95,3.0,NNW,27.6,34.5,N/A,Snow,Light Snow,330,2012-10-04 05:12:00
1:15 AM,26.6,23.0,86,29.95,7.0,NNW,28.8,-,N/A,Snow,Light Snow,330,2012-10-04 05:15:00
1:59 AM,24.8,21.2,86,29.97,9.0,NNW,32.2,-,N/A,,Overcast,330,2012-10-04 05:59:00
2:00 AM,24.8,21.2,86,29.97,9.0,NNW,33.4,-,N/A,,Overcast,330,2012-10-04 06:00:00
2:35 AM,24.8,21.2,86,29.99,9.0,NW,26.5,35.7,N/A,,Overcast,320,2012-10-04 06:35:00
3:00 AM,23.0,19.4,86,29.99,9.0,NNW,29.9,40.3,N/A,,Scattered Clouds,330,2012-10-04 07:00:00
4:00 AM,23.0,19.4,86,30.02,9.0,NW,19.6,26.5,N/A,,Partly Cloudy,320,2012-10-04 08:00:00
5:00 AM,23.0,17.6,80,30.01,9.0,NW,26.5,34.5,N/A,,Overcast,320,2012-10-04 09:00:00
5:51 AM,24.8,19.4,80,30.02,9.0,NW,26.5,33.4,N/A,Snow,Light Snow,320,2012-10-04 09:51:00
6:00 AM,24.8,19.4,80,30.02,9.0,NW,25.3,31.1,N/A,Snow,Light Snow,320,2012-10-04 10:00:00
7:00 AM,24.8,21.2,86,30.03,9.0,NW,24.2,29.9,N/A,Snow,Light Snow,310,2012-10-04 11:00:00
7:16 AM,24.8,21.2,86,30.03,9.0,NW,26.5,33.4,N/A,,Overcast,310,2012-10-04 11:16:00
7:41 AM,24.8,21.2,86,30.04,9.0,NW,26.5,35.7,N/A,Snow,Light Snow,310,2012-10-04 11:41:00
7:56 AM,24.8,21.2,86,30.03,9.0,NW,27.6,36.8,N/A,,Overcast,320,2012-10-04 11:56:00
8:00 AM,24.8,21.2,86,30.04,12.0,NW,27.6,36.8,N/A,Snow,Low Drifting Snow,320,2012-10-04 12:00:00
9:00 AM,24.8,19.4,80,30.04,12.0,NNW,33.4,40.3,N/A,Snow,Low Drifting Snow,330,2012-10-04 13:00:00
10:00 AM,24.8,19.4,80,30.06,5.0,NNW,29.9,39.1,N/A,Snow,Blowing Snow,330,2012-10-04 14:00:00
11:00 AM,24.8,19.4,80,30.06,15.0,NW,27.6,-,N/A,Snow,Low Drifting Snow,310,2012-10-04 15:00:00
12:00 PM,24.8,19.4,80,30.06,15.0,NW,31.1,-,N/A,Snow,Low Drifting Snow,320,2012-10-04 16:00:00
1:00 PM,26.6,21.2,80,30.06,15.0,NW,31.1,38.0,N/A,Snow,Low Drifting Snow,320,2012-10-04 17:00:00
1:37 PM,26.6,21.2,80,30.08,15.0,NNW,25.3,32.2,N/A,Snow,Light Snow,330,2012-10-04 17:37:00
2:00 PM,26.6,21.2,80,30.08,12.0,NNW,28.8,35.7,N/A,Snow,Light Snow,340,2012-10-04 18:00:00
3:00 PM,28.4,24.8,86,30.09,12.0,NNW,24.2,-,N/A,Snow,Light Snow,330,2012-10-04 19:00:00
3:11 PM,28.4,24.8,86,30.09,10.0,NNW,20.7,29.9,N/A,Rain-Snow,Light Freezing Rain,330,2012-10-04 19:11:00
3:30 PM,28.4,23.0,80,30.08,12.0,NW,26.5,-,N/A,Snow,Low Drifting Snow,320,2012-10-04 19:30:00
4:00 PM,28.4,23.0,80,30.09,12.0,NW,25.3,33.4,N/A,Snow,Low Drifting Snow,310,2012-10-04 20:00:00
5:00 PM,28.4,24.8,86,30.09,15.0,NW,24.2,-,N/A,Snow,Low Drifting Snow,310,2012-10-04 21:00:00
5:25 PM,28.4,24.8,86,30.08,10.0,WNW,23.0,-,N/A,Snow,Light Snow,300,2012-10-04 21:25:00
6:00 PM,28.4,26.6,93,30.08,12.0,NW,25.3,31.1,N/A,Snow,Light Snow,310,2012-10-04 22:00:00
6:33 PM,28.4,26.6,93,30.08,1.0,WNW,27.6,-,N/A,Snow,Light Snow,300,2012-10-04 22:33:00
6:37 PM,28.4,26.6,93,30.08,0.5,WNW,27.6,-,N/A,Snow,Light Snow,300,2012-10-04 22:37:00
6:51 PM,28.4,28.4,100,30.08,1.0,WNW,25.3,31.1,N/A,Snow,Heavy Snow,300,2012-10-04 22:51:00
7:00 PM,28.4,26.6,93,30.07,2.0,WNW,26.5,34.5,N/A,Snow,Light Snow,300,2012-10-04 23:00:00
7:47 PM,28.4,24.8,86,30.08,12.0,NW,25.3,32.2,N/A,Snow,Low Drifting Snow,320,2012-10-04 23:47:00
8:00 PM,28.4,24.8,86,30.08,15.0,NW,26.5,32.2,N/A,Snow,Low Drifting Snow,320,2012-10-05 00:00:00
8:41 PM,28.4,24.8,86,30.09,5.0,NNW,31.1,38.0,N/A,,Mostly Cloudy,330,2012-10-05 00:41:00
8:42 PM,28.4,24.8,86,30.09,5.0,NNW,31.1,38.0,N/A,Snow,Light Snow,330,2012-10-05 00:42:00
9:00 PM,26.6,23.0,86,30.09,5.0,NNW,28.8,36.8,N/A,Snow,Light Snow,330,2012-10-05 01:00:00
9:02 PM,26.6,23.0,86,30.09,6.0,NNW,26.5,35.7,N/A,Snow,Light Snow,330,2012-10-05 01:02:00
9:10 PM,26.6,23.0,86,30.09,9.0,NNW,25.3,35.7,N/A,,Partly Cloudy,330,2012-10-05 01:10:00
9:50 PM,26.6,23.0,86,30.09,9.0,NNW,23.0,-,N/A,,Mostly Cloudy,330,2012-10-05 01:50:00
9:55 PM,26.6,23.0,86,30.09,9.0,NNW,20.7,27.6,N/A,,Mostly Cloudy,330,2012-10-05 01:55:00
10:00 PM,26.6,23.0,86,30.09,9.0,NNW,21.9,27.6,N/A,,Mostly Cloudy,330,2012-10-05 02:00:00
10:06 PM,26.6,23.0,86,30.09,9.0,NNW,21.9,27.6,N/A,,Mostly Cloudy,330,2012-10-05 02:06:00
10:08 PM,26.6,23.0,86,30.09,9.0,NNW,20.7,27.6,N/A,,Mostly Cloudy,330,2012-10-05 02:08:00
10:50 PM,28.4,23.0,80,30.10,9.0,NW,18.4,-,N/A,Snow,Light Snow,320,2012-10-05 02:50:00
10:58 PM,26.6,24.8,93,30.09,5.0,NW,21.9,-,N/A,Snow,Light Snow,320,2012-10-05 02:58:00
11:00 PM,26.6,24.8,93,30.10,4.0,NW,20.7,-,N/A,Snow,Light Snow,320,2012-10-05 03:00:00
11:02 PM,26.6,24.8,93,30.10,3.0,NW,23.0,-,N/A,Snow,Light Snow,320,2012-10-05 03:02:00
11:04 PM,26.6,24.8,93,30.10,2.5,NW,23.0,-,N/A,Snow,Light Snow,320,2012-10-05 03:04:00
11:14 PM,26.6,24.8,93,30.10,3.0,NNW,20.7,27.6,N/A,Snow,Light Snow,330,2012-10-05 03:14:00
11:23 PM,26.6,24.8,93,30.10,6.0,NNW,17.3,23.0,N/A,Snow,Light Snow,340,2012-10-05 03:23:00
11:28 PM,26.6,26.6,100,30.10,9.0,NNW,15.0,21.9,N/A,Snow,Light Snow,330,2012-10-05 03:28:00
11:46 PM,28.4,24.8,86,30.09,9.0,NW,20.7,-,N/A,,Mostly Cloudy,320,2012-10-05 03:46:00